When you browse on this site, cookies collect data to enhance your experience and personalize the content and advertising you see.
Visit our Privacy Policy to learn more. By continuing to use the site, you agree to this use of cookies and data.
  • In Slovakia
  • List of Countries
  • For 7 days
  • Water Temperature
  • Satellite Maps
  • Weather Map
  • Weather Widgets
  • user-avatar
    Login

    Hourly Weather Vanadzor

    Today, 20 January, Sunday

    Time Temperature Precipitation Wind Pressure Humidity
    00:00 -8°C° 0 mm 2 mps 633 mmHg 53%
    01:00 -8°C° 0 mm 2 mps 634 mmHg 54%
    02:00 -9°C° 0 mm 2 mps 634 mmHg 55%
    03:00 -9°C° 0 mm 3 mps 634 mmHg 54%
    04:00 -9°C° 0 mm 3 mps 634 mmHg 55%
    05:00 -8°C° 0 mm 2 mps 634 mmHg 56%
    06:00 -8°C° 0 mm 2 mps 634 mmHg 57%
    07:00 -7°C° 0 mm 2 mps 634 mmHg 61%
    08:00 -6°C° 0 mm 2 mps 635 mmHg 65%
    09:00 -5°C° 0 mm 2 mps 636 mmHg 70%
    10:00 -4°C° 0 mm 2 mps 636 mmHg 69%
    11:00 -3°C° 0 mm 2 mps 636 mmHg 69%
    12:00 -1°C° 0 mm 2 mps 636 mmHg 69%
    13:00 -2°C° 0 mm 2 mps 636 mmHg 69%
    14:00 0°C° 0 mm 1 mps 636 mmHg 70%
    15:00 0°C° 0 mm 1 mps 635 mmHg 71%
    16:00 -2°C° 0 mm 1 mps 635 mmHg 71%
    17:00 -3°C° 0 mm 1 mps 635 mmHg 71%
    18:00 -7°C° 0 mm 2 mps 635 mmHg 70%
    19:00 -7°C° 0 mm 2 mps 635 mmHg 68%
    20:00 -8°C° 0 mm 2 mps 635 mmHg 65%
    21:00 -8°C° 0 mm 2 mps 635 mmHg 63%
    22:00 -8°C° 0 mm 2 mps 635 mmHg 62%
    23:00 -8°C° 0 mm 2 mps 635 mmHg 61%

    Tomorrow, 21 January, Monday

    Time Temperature Precipitation Wind Pressure Humidity
    00:00 -9°C° 0 mm 2 mps 635 mmHg 59%
    01:00 -9°C° 0 mm 2 mps 635 mmHg 60%
    02:00 -9°C° 0 mm 2 mps 635 mmHg 61%
    03:00 -9°C° 0 mm 2 mps 635 mmHg 61%
    04:00 -9°C° 0 mm 2 mps 635 mmHg 62%
    05:00 -9°C° 0 mm 2 mps 635 mmHg 62%
    06:00 -9°C° 0 mm 2 mps 635 mmHg 63%
    07:00 -9°C° 0 mm 2 mps 635 mmHg 64%
    08:00 -8°C° 0 mm 2 mps 635 mmHg 65%
    09:00 -7°C° 0 mm 2 mps 636 mmHg 66%
    10:00 -6°C° 0 mm 2 mps 636 mmHg 65%
    11:00 -4°C° 0 mm 2 mps 636 mmHg 64%
    12:00 -3°C° 0 mm 2 mps 636 mmHg 63%
    13:00 -3°C° 0 mm 2 mps 635 mmHg 64%
    14:00 -3°C° 0 mm 2 mps 635 mmHg 65%
    15:00 -3°C° 0 mm 2 mps 634 mmHg 67%
    16:00 -4°C° 0 mm 2 mps 634 mmHg 66%
    17:00 -6°C° 0 mm 2 mps 634 mmHg 65%
    18:00 -8°C° 0 mm 2 mps 633 mmHg 65%
    19:00 -8°C° 0 mm 2 mps 633 mmHg 63%
    20:00 -9°C° 0 mm 3 mps 633 mmHg 61%
    21:00 -10°C° 0 mm 3 mps 633 mmHg 59%
    22:00 -10°C° 0 mm 3 mps 633 mmHg 60%
    23:00 -10°C° 0 mm 3 mps 633 mmHg 61%

    Day after tomorrow, 22 January, Tuesday

    Time Temperature Precipitation Wind Pressure Humidity
    00:00 -10°C° 0 mm 3 mps 633 mmHg 63%
    01:00 -10°C° 0 mm 3 mps 633 mmHg 63%
    02:00 -10°C° 0 mm 3 mps 632 mmHg 64%
    03:00 -10°C° 0 mm 3 mps 632 mmHg 64%
    04:00 -9°C° 0 mm 3 mps 632 mmHg 64%
    05:00 -9°C° 0 mm 3 mps 632 mmHg 64%
    06:00 -9°C° 0 mm 3 mps 632 mmHg 64%
    07:00 -8°C° 0 mm 3 mps 632 mmHg 64%
    08:00 -8°C° 0 mm 3 mps 632 mmHg 65%
    09:00 -7°C° 0 mm 3 mps 633 mmHg 65%
    10:00 -5°C° 0 mm 3 mps 633 mmHg 65%
    11:00 -4°C° 0 mm 3 mps 633 mmHg 65%
    12:00 -2°C° 0 mm 3 mps 633 mmHg 65%
    13:00 -2°C° 0 mm 3 mps 633 mmHg 66%
    14:00 -2°C° 0 mm 2 mps 632 mmHg 67%
    15:00 -2°C° 0 mm 2 mps 632 mmHg 68%
    16:00 -3°C° 0 mm 2 mps 632 mmHg 68%
    17:00 -5°C° 0 mm 2 mps 632 mmHg 69%
    18:00 -6°C° 0 mm 2 mps 632 mmHg 69%
    19:00 -7°C° 0 mm 2 mps 632 mmHg 68%
    20:00 -7°C° 0 mm 2 mps 632 mmHg 66%
    21:00 -8°C° 0 mm 2 mps 632 mmHg 65%
    22:00 -8°C° 0 mm 2 mps 632 mmHg 66%
    23:00 -8°C° 0 mm 2 mps 633 mmHg 67%

    23 January, Wednesday

    Time Temperature Precipitation Wind Pressure Humidity
    00:00 -8°C° 0 mm 2 mps 633 mmHg 68%
    01:00 -8°C° 0 mm 2 mps 633 mmHg 68%
    02:00 -8°C° 0 mm 2 mps 633 mmHg 69%
    03:00 -8°C° 0 mm 2 mps 633 mmHg 70%
    04:00 -8°C° 0 mm 2 mps 633 mmHg 70%
    05:00 -9°C° 0 mm 2 mps 633 mmHg 70%
    06:00 -9°C° 0 mm 2 mps 633 mmHg 69%
    07:00 -8°C° 0 mm 2 mps 633 mmHg 69%
    08:00 -7°C° 0 mm 2 mps 634 mmHg 70%
    09:00 -7°C° 0 mm 2 mps 634 mmHg 70%
    10:00 -5°C° 0 mm 2 mps 634 mmHg 68%
    11:00 -4°C° 0 mm 2 mps 635 mmHg 67%
    12:00 0°C° 0 mm 1 mps 635 mmHg 65%
    13:00 0°C° 0 mm 1 mps 635 mmHg 67%
    14:00 0°C° 0 mm 1 mps 634 mmHg 68%
    15:00 0°C° 0 mm 1 mps 634 mmHg 69%
    16:00 -2°C° 0 mm 1 mps 634 mmHg 71%
    17:00 -3°C° 0 mm 1 mps 634 mmHg 73%
    18:00 -6°C° 0 mm 1 mps 634 mmHg 75%
    19:00 -6°C° 0 mm 1 mps 634 mmHg 74%
    20:00 -7°C° 0 mm 2 mps 635 mmHg 72%
    21:00 -7°C° 0 mm 2 mps 635 mmHg 71%
    22:00 -8°C° 0 mm 2 mps 635 mmHg 71%
    23:00 -8°C° 0 mm 2 mps 635 mmHg 71%

    24 January, Thursday

    Time Temperature Precipitation Wind Pressure Humidity
    00:00 -8°C° 0 mm 2 mps 636 mmHg 71%
    01:00 -8°C° 0 mm 2 mps 635 mmHg 71%
    02:00 -8°C° 0 mm 2 mps 635 mmHg 72%
    03:00 -8°C° 0 mm 2 mps 635 mmHg 73%
    04:00 -8°C° 0 mm 2 mps 635 mmHg 73%
    05:00 -9°C° 0 mm 3 mps 635 mmHg 73%
    06:00 -9°C° 0 mm 3 mps 635 mmHg 74%
    07:00 -8°C° 0 mm 3 mps 635 mmHg 74%
    08:00 -7°C° 0 mm 3 mps 636 mmHg 73%
    09:00 -6°C° 0 mm 3 mps 636 mmHg 73%
    10:00 -5°C° 0 mm 3 mps 636 mmHg 71%
    11:00 -2°C° 0 mm 3 mps 636 mmHg 70%
    12:00 -1°C° 0 mm 3 mps 636 mmHg 69%
    13:00 -1°C° 0 mm 3 mps 636 mmHg 69%
    14:00 -1°C° 0 mm 3 mps 635 mmHg 70%
    15:00 0°C° 0 mm 3 mps 635 mmHg 70%
    16:00 -2°C° 0 mm 3 mps 635 mmHg 71%
    17:00 -4°C° 0 mm 3 mps 634 mmHg 72%
    18:00 -5°C° 0 mm 3 mps 634 mmHg 73%
    19:00 -5°C° 0 mm 3 mps 634 mmHg 72%
    20:00 -6°C° 0 mm 3 mps 634 mmHg 71%
    21:00 -6°C° 0 mm 3 mps 634 mmHg 70%
    22:00 -6°C° 0 mm 3 mps 634 mmHg 70%
    23:00 -6°C° 0 mm 3 mps 634 mmHg 70%

    25 January, Friday

    Time Temperature Precipitation Wind Pressure Humidity
    00:00 -6°C° 0 mm 3 mps 633 mmHg 71%
    01:00 -6°C° 0 mm 3 mps 633 mmHg 71%
    02:00 -6°C° 0 mm 3 mps 633 mmHg 72%
    03:00 -6°C° 0 mm 3 mps 633 mmHg 73%
    04:00 -5°C° 0.1 mm 3 mps 633 mmHg 76%
    05:00 -5°C° 0.1 mm 3 mps 633 mmHg 80%
    06:00 -4°C° 0.1 mm 3 mps 633 mmHg 83%
    07:00 -4°C° 0 mm 3 mps 633 mmHg 83%
    08:00 -4°C° 0 mm 3 mps 633 mmHg 82%
    09:00 -2°C° 0 mm 3 mps 633 mmHg 82%
    10:00 -1°C° 0 mm 3 mps 633 mmHg 80%
    11:00 -1°C° 0 mm 4 mps 633 mmHg 78%
    12:00 0°C° 0 mm 4 mps 633 mmHg 76%
    13:00 0°C° 0 mm 4 mps 632 mmHg 76%
    14:00 0°C° 0 mm 4 mps 632 mmHg 75%
    15:00 0°C° 0 mm 4 mps 632 mmHg 74%
    16:00 -1°C° 0 mm 4 mps 631 mmHg 76%
    17:00 -1°C° 0 mm 3 mps 631 mmHg 78%
    18:00 -4°C° 0 mm 3 mps 631 mmHg 81%
    19:00 -4°C° 0 mm 3 mps 631 mmHg 80%
    20:00 -4°C° 0 mm 3 mps 631 mmHg 79%
    21:00 -4°C° 0 mm 3 mps 631 mmHg 78%
    22:00 -5°C° 0 mm 3 mps 631 mmHg 78%
    23:00 -5°C° 0 mm 3 mps 631 mmHg 79%
    Show more